Find Local Weather

World > North America > United States > Florida

Coconut Creek, Florida Regional Weather

Lat: 26.27N, Lon: 80.19W
Wx Zone: FLZ072
Warning FLW WEATHER ALERT - (More Info. Click Here) Warning
Feedback

Coconut Creek, FL Regional Weather

Expires:201904190700;;148887
ASUS42 KTBW 190616
RWRFL 
FLORIDA REGIONAL WEATHER ROUNDUP
NATIONAL WEATHER SERVICE TAMPA BAY RUSKIN FL
200 AM EDT FRI APR 19 2019

NOTE: "FAIR" INDICATES FEW OR NO CLOUDS BELOW 12,000 FEET WITH NO
SIGNIFICANT WEATHER AND/OR OBSTRUCTIONS TO VISIBILITY.


FLZ067-068-071>074-168-172>174-190700-
SOUTHEAST FLORIDA 
  
CITY           SKY/WX    TMP DP  RH WIND       PRES   REMARKS
W PALM BEACH   MOCLDY    78  72  81 SE20G25   29.93F                  
FT LAUDER-EXEC FAIR      80  70  71 SE14      29.93F                  
FT LAUDERDALE  FAIR      79  70  74 SE15G26   29.93F                  
POMPANO BEACH  FAIR      80  71  74 SE17G25   29.94F                  
PEMBROKE PINES FAIR      79  69  71 SE13      29.95F                  
OPA LOCKA      FAIR      80  69  69 SE16      29.94F                  
MIAMI          FAIR      79  70  74 SE15      29.94F                  
WEST KENDALL   FAIR      80  70  71 SE13G20   29.94F                  
HOMESTEAD      MOCLDY    79  72  78 SE13G20   29.93F                  

STATION/POSITION SKY/WX   TEMP    WIND        PRES    WAVE   SWELL
                          AIR SEA DIR/SP/G            HT/PER HT/PER
                          (F)     (DEG/KT/KT) (MB)    (FT/S) (FT/S)
VIRGINIA KEY               80 82  120/ 13/ 17 1013.8F
LAKE WORTH                 79 80  160/ 22/ 25 1014.8F
SETTLEMENT POINT           78     140/ 14/ 17 1014.7F

$$

  

SKY/WX - Weather  TMP - Temperature  DP - Dew Point  RH - Relative Humidity
WIND - Wind Direction/Speed PRES - Barometric Pressure VSB - Visibility
WCI - Wind Chill Index E13G22 Wind - East Wind 13 mph/Gusts of 22 mph